When you browse on this site, cookies collect data to enhance your experience and personalize the content and advertising you see.
Visit our Privacy Policy to learn more. By continuing to use the site, you agree to this use of cookies and data.
  • In Deutschland
  • Länderverzeichnis
  • Für 7 Tage
  • Wassertemperatur
  • Satellitenkarten
  • Wetterkarte
  • Widgets
  • user-avatar
    Anmelden

    Stündliche Wetter Darwin

    Heute, 17 Juni, Montag

    Zeit Temperatur Niederschläge Wind Luftdruck Luftfeuchtigkeit
    00:00 +23°C° 0 mm 1 m/S 760 mmHg 87%
    01:00 +23°C° 0 mm 1 m/S 760 mmHg 87%
    02:00 +21°C° 0 mm 0 m/S 760 mmHg 88%
    03:00 +20°C° 0 mm 0 m/S 760 mmHg 88%
    04:00 +22°C° 0 mm 1 m/S 760 mmHg 88%
    05:00 +22°C° 0 mm 1 m/S 760 mmHg 88%
    06:00 +21°C° 0 mm 2 m/S 760 mmHg 88%
    07:00 +24°C° 0 mm 2 m/S 761 mmHg 77%
    08:00 +26°C° 0 mm 2 m/S 761 mmHg 66%
    09:00 +28°C° 0 mm 3 m/S 762 mmHg 55%
    10:00 +30°C° 0 mm 3 m/S 761 mmHg 46%
    11:00 +33°C° 0 mm 3 m/S 761 mmHg 38%
    12:00 +35°C° 0 mm 4 m/S 760 mmHg 30%
    13:00 +35°C° 0 mm 4 m/S 759 mmHg 30%
    14:00 +36°C° 0 mm 4 m/S 759 mmHg 29%
    15:00 +36°C° 0 mm 4 m/S 758 mmHg 28%
    16:00 +34°C° 0 mm 4 m/S 758 mmHg 36%
    17:00 +30°C° 0 mm 3 m/S 758 mmHg 44%
    18:00 +28°C° 0 mm 3 m/S 758 mmHg 52%
    19:00 +27°C° 0 mm 2 m/S 759 mmHg 56%
    20:00 +25°C° 0 mm 2 m/S 759 mmHg 60%
    21:00 +24°C° 0 mm 2 m/S 760 mmHg 64%
    22:00 +24°C° 0 mm 2 m/S 760 mmHg 63%
    23:00 +25°C° 0 mm 2 m/S 760 mmHg 62%

    Morgen, 18 Juni, Dienstag

    Zeit Temperatur Niederschläge Wind Luftdruck Luftfeuchtigkeit
    00:00 +25°C° 0 mm 2 m/S 761 mmHg 61%
    01:00 +24°C° 0 mm 2 m/S 761 mmHg 64%
    02:00 +23°C° 0 mm 2 m/S 760 mmHg 66%
    03:00 +23°C° 0 mm 2 m/S 760 mmHg 69%
    04:00 +21°C° 0 mm 2 m/S 760 mmHg 69%
    05:00 +20°C° 0 mm 3 m/S 761 mmHg 68%
    06:00 +20°C° 0 mm 4 m/S 761 mmHg 68%
    07:00 +22°C° 0 mm 5 m/S 761 mmHg 61%
    08:00 +24°C° 0 mm 6 m/S 761 mmHg 54%
    09:00 +27°C° 0 mm 6 m/S 762 mmHg 48%
    10:00 +29°C° 0 mm 6 m/S 761 mmHg 41%
    11:00 +32°C° 0 mm 6 m/S 761 mmHg 35%
    12:00 +34°C° 0 mm 5 m/S 760 mmHg 28%
    13:00 +34°C° 0 mm 5 m/S 759 mmHg 27%
    14:00 +35°C° 0 mm 4 m/S 759 mmHg 27%
    15:00 +35°C° 0 mm 4 m/S 758 mmHg 26%
    16:00 +33°C° 0 mm 3 m/S 758 mmHg 29%
    17:00 +31°C° 0 mm 3 m/S 758 mmHg 32%
    18:00 +29°C° 0 mm 2 m/S 758 mmHg 35%
    19:00 +28°C° 0 mm 3 m/S 759 mmHg 36%
    20:00 +26°C° 0 mm 3 m/S 760 mmHg 36%
    21:00 +25°C° 0 mm 4 m/S 760 mmHg 37%
    22:00 +23°C° 0 mm 5 m/S 760 mmHg 37%
    23:00 +23°C° 0 mm 5 m/S 760 mmHg 37%

    übermorgen, 19 Juni, Mittwoch

    Zeit Temperatur Niederschläge Wind Luftdruck Luftfeuchtigkeit
    00:00 +22°C° 0 mm 6 m/S 760 mmHg 37%
    01:00 +21°C° 0 mm 6 m/S 760 mmHg 39%
    02:00 +20°C° 0 mm 6 m/S 760 mmHg 42%
    03:00 +20°C° 0 mm 6 m/S 760 mmHg 44%
    04:00 +19°C° 0 mm 6 m/S 760 mmHg 44%
    05:00 +17°C° 0 mm 6 m/S 760 mmHg 44%
    06:00 +17°C° 0 mm 7 m/S 761 mmHg 45%
    07:00 +18°C° 0 mm 7 m/S 761 mmHg 39%
    08:00 +21°C° 0 mm 7 m/S 761 mmHg 34%
    09:00 +23°C° 0 mm 7 m/S 762 mmHg 29%
    10:00 +26°C° 0 mm 6 m/S 761 mmHg 25%
    11:00 +28°C° 0 mm 6 m/S 761 mmHg 21%
    12:00 +30°C° 0 mm 5 m/S 760 mmHg 18%
    13:00 +30°C° 0 mm 4 m/S 759 mmHg 17%
    14:00 +32°C° 0 mm 4 m/S 758 mmHg 15%
    15:00 +33°C° 0 mm 3 m/S 758 mmHg 14%
    16:00 +30°C° 0 mm 2 m/S 758 mmHg 18%
    17:00 +28°C° 0 mm 2 m/S 758 mmHg 22%
    18:00 +25°C° 0 mm 1 m/S 758 mmHg 25%
    19:00 +24°C° 0 mm 2 m/S 759 mmHg 26%
    20:00 +22°C° 0 mm 3 m/S 759 mmHg 27%
    21:00 +21°C° 0 mm 4 m/S 760 mmHg 27%
    22:00 +20°C° 0 mm 5 m/S 760 mmHg 28%
    23:00 +20°C° 0 mm 5 m/S 760 mmHg 29%

    20 Juni, Donnerstag

    Zeit Temperatur Niederschläge Wind Luftdruck Luftfeuchtigkeit
    00:00 +19°C° 0 mm 6 m/S 760 mmHg 29%
    01:00 +17°C° 0 mm 6 m/S 760 mmHg 31%
    02:00 +17°C° 0 mm 6 m/S 760 mmHg 32%
    03:00 +16°C° 0 mm 6 m/S 760 mmHg 33%
    04:00 +15°C° 0 mm 6 m/S 760 mmHg 35%
    05:00 +15°C° 0 mm 6 m/S 760 mmHg 37%
    06:00 +14°C° 0 mm 6 m/S 761 mmHg 38%
    07:00 +16°C° 0 mm 6 m/S 761 mmHg 37%
    08:00 +19°C° 0 mm 6 m/S 761 mmHg 35%
    09:00 +21°C° 0 mm 6 m/S 762 mmHg 34%
    10:00 +25°C° 0 mm 5 m/S 761 mmHg 31%
    11:00 +27°C° 0 mm 5 m/S 760 mmHg 28%
    12:00 +30°C° 0 mm 4 m/S 760 mmHg 25%
    13:00 +31°C° 0 mm 3 m/S 759 mmHg 25%
    14:00 +32°C° 0 mm 2 m/S 759 mmHg 25%
    15:00 +33°C° 0 mm 1 m/S 758 mmHg 25%
    16:00 +30°C° 0 mm 2 m/S 758 mmHg 32%
    17:00 +27°C° 0 mm 2 m/S 758 mmHg 38%
    18:00 +25°C° 0 mm 2 m/S 758 mmHg 45%
    19:00 +24°C° 0 mm 2 m/S 759 mmHg 47%
    20:00 +23°C° 0 mm 2 m/S 759 mmHg 49%
    21:00 +21°C° 0 mm 3 m/S 760 mmHg 51%
    22:00 +20°C° 0 mm 3 m/S 760 mmHg 49%
    23:00 +20°C° 0 mm 4 m/S 760 mmHg 47%

    21 Juni, Freitag

    Zeit Temperatur Niederschläge Wind Luftdruck Luftfeuchtigkeit
    00:00 +19°C° 0 mm 5 m/S 760 mmHg 45%
    01:00 +19°C° 0 mm 5 m/S 760 mmHg 46%
    02:00 +17°C° 0 mm 6 m/S 760 mmHg 47%
    03:00 +17°C° 0 mm 6 m/S 760 mmHg 48%
    04:00 +16°C° 0 mm 6 m/S 760 mmHg 49%
    05:00 +16°C° 0 mm 6 m/S 760 mmHg 50%
    06:00 +15°C° 0 mm 5 m/S 760 mmHg 51%
    07:00 +17°C° 0 mm 6 m/S 761 mmHg 49%
    08:00 +20°C° 0 mm 6 m/S 761 mmHg 46%
    09:00 +22°C° 0 mm 6 m/S 761 mmHg 44%
    10:00 +26°C° 0 mm 5 m/S 761 mmHg 40%
    11:00 +28°C° 0 mm 4 m/S 760 mmHg 37%
    12:00 +32°C° 0 mm 4 m/S 760 mmHg 33%
    13:00 +31°C° 0 mm 3 m/S 759 mmHg 32%
    14:00 +32°C° 0 mm 2 m/S 758 mmHg 32%
    15:00 +34°C° 0 mm 2 m/S 758 mmHg 32%
    16:00 +30°C° 0 mm 2 m/S 758 mmHg 39%
    17:00 +28°C° 0 mm 2 m/S 758 mmHg 47%
    18:00 +25°C° 0 mm 2 m/S 758 mmHg 54%
    19:00 +25°C° 0 mm 2 m/S 759 mmHg 57%
    20:00 +24°C° 0 mm 2 m/S 759 mmHg 59%
    21:00 +23°C° 0 mm 2 m/S 760 mmHg 62%
    22:00 +21°C° 0 mm 3 m/S 760 mmHg 57%
    23:00 +21°C° 0 mm 4 m/S 760 mmHg 52%

    22 Juni, Samstag

    Zeit Temperatur Niederschläge Wind Luftdruck Luftfeuchtigkeit
    00:00 +20°C° 0 mm 6 m/S 760 mmHg 48%
    01:00 +20°C° 0 mm 6 m/S 760 mmHg 49%
    02:00 +20°C° 0 mm 6 m/S 759 mmHg 50%
    03:00 +18°C° 0 mm 7 m/S 759 mmHg 52%
    04:00 +17°C° 0 mm 6 m/S 760 mmHg 55%
    05:00 +16°C° 0 mm 6 m/S 760 mmHg 59%
    06:00 +16°C° 0 mm 6 m/S 760 mmHg 62%
    07:00 +19°C° 0 mm 6 m/S 761 mmHg 58%
    08:00 +21°C° 0 mm 7 m/S 761 mmHg 54%
    09:00 +22°C° 0 mm 7 m/S 761 mmHg 50%
    10:00 +26°C° 0 mm 6 m/S 761 mmHg 45%
    11:00 +28°C° 0 mm 5 m/S 760 mmHg 40%
    12:00 +30°C° 0 mm 4 m/S 760 mmHg 35%
    13:00 +32°C° 0 mm 4 m/S 759 mmHg 32%
    14:00 +33°C° 0 mm 3 m/S 758 mmHg 29%
    15:00 +34°C° 0 mm 2 m/S 758 mmHg 27%
    16:00 +31°C° 0 mm 2 m/S 758 mmHg 32%
    17:00 +28°C° 0 mm 2 m/S 758 mmHg 38%
    18:00 +26°C° 0 mm 2 m/S 758 mmHg 43%
    19:00 +24°C° 0 mm 2 m/S 759 mmHg 44%
    20:00 +23°C° 0 mm 2 m/S 759 mmHg 45%
    21:00 +21°C° 0 mm 2 m/S 760 mmHg 46%
    22:00 +20°C° 0 mm 3 m/S 760 mmHg 42%
    23:00 +20°C° 0 mm 5 m/S 760 mmHg 37%
    Mehr zeigen